College Station, TX

11:02 AM CST on December 04, 2016 (GMT -0600)
Easterwood

Weather History for KCLL - June, 2013

Change the Weather History Date:

Monday, June 17, 2013

  Actual Average Record
Temperature  
Mean Temperature 87 °F 83 °F  
Max Temperature 97 °F 92 °F 105 °F (1934)
Min Temperature 76 °F 73 °F 61 °F (1947)
Degree Days  
Heating Degree Days 0 0  
Month to date heating degree days 0 0  
Since 1 June heating degree days 0 0  
Since 1 July heating degree days 1354 1608  
Cooling Degree Days 22 18  
Month to date cooling degree days 297 278  
Year to date cooling degree days 861 866  
Since 1 June cooling degree days 297 278  
Growing Degree Days 36 (Base 50)    
Moisture  
Dew Point 73 °F    
Average Humidity 66    
Maximum Humidity 94    
Minimum Humidity 38    
Precipitation  
Precipitation 0.00 in 0.16 in 2.49 in (1986)
Month to date precipitation 1.15 2.74  
Year to date precipitation 17.42 18.99  
Sea Level Pressure  
Sea Level Pressure 29.94 in    
Wind  
Wind Speed 8 mph (South)    
Max Wind Speed 16 mph    
Max Gust Speed 21 mph    
Visibility 10 miles    
Events      
T = Trace of Precipitation, MM = Missing Value Source: NWS Daily Summary

Daily Weather History Graph

Daily Weather History Graph

Search for Another Location

Airport or City:

Trip Planner

Search our weather history database for the weather conditions in past years. The results will help you decide how hot, cold, wet, or windy it might be!

Date:

Astronomy

Jun. 17, 2013 Rise Set
Actual Time 6:22 AM CDT 8:30 PM CDT
Civil Twilight 5:55 AM CDT 8:57 PM CDT
Nautical Twilight 5:21 AM CDT 9:31 PM CDT
Astronomical Twilight 4:45 AM CDT 10:07 PM CDT
Moon 2:29 PM CDT (6/17) 1:37 AM CDT (6/17)
Length of Visible Light 15h 02m
Length of Day
14h 07m
First Quarter, 60% of the Moon is Illuminated
Jun 17
First Quarter
Jun 23
Full
Jun 29
Last Quarter
Jul 8
New
Jul 15
First Quarter

Hourly Weather History & Observations

Time (CDT) Temp. Heat Index Dew Point Humidity Pressure Visibility Wind Dir Wind Speed Gust Speed Precip Events Conditions
12:53 AM 82.0 °F 87.9 °F 73.9 °F 76% 29.96 in 10.0 mi South 10.4 mph - N/A   Clear
1:53 AM 80.1 °F 84.5 °F 73.9 °F 81% 29.96 in 10.0 mi South 9.2 mph - N/A   Clear
2:53 AM 79.0 °F - 75.0 °F 88% 29.94 in 10.0 mi South 8.1 mph - N/A   Clear
3:53 AM 78.1 °F - 75.0 °F 90% 29.93 in 10.0 mi South 5.8 mph - N/A   Partly Cloudy
4:48 AM 77.0 °F - 75.2 °F 94% 29.94 in 10.0 mi South 3.5 mph - N/A   Partly Cloudy
4:53 AM 77.0 °F - 75.0 °F 94% 29.93 in 10.0 mi South 3.5 mph - N/A   Partly Cloudy
5:12 AM 77.0 °F - 75.2 °F 94% 29.95 in 9.0 mi South 3.5 mph - N/A   Mostly Cloudy
5:35 AM 75.2 °F - 73.4 °F 94% 29.96 in 9.0 mi South 3.5 mph - N/A   Overcast
5:53 AM 75.9 °F - 73.9 °F 94% 29.94 in 9.0 mi South 3.5 mph - N/A   Overcast
6:53 AM 75.9 °F - 73.9 °F 94% 29.96 in 7.0 mi Calm Calm - N/A   Overcast
7:00 AM 75.2 °F - 75.2 °F 100% 29.98 in 7.0 mi Calm Calm - N/A   Overcast
7:12 AM 75.2 °F - 75.2 °F 100% 29.98 in 7.0 mi South 4.6 mph - N/A   Overcast
7:19 AM 77.0 °F - 75.2 °F 94% 29.98 in 7.0 mi SSE 4.6 mph - N/A   Overcast
7:28 AM 77.0 °F - 75.2 °F 94% 29.98 in 8.0 mi South 4.6 mph - N/A   Overcast
7:53 AM 78.1 °F - 75.0 °F 90% 29.97 in 10.0 mi SSW 6.9 mph - N/A   Mostly Cloudy
8:25 AM 80.6 °F 86.2 °F 75.2 °F 84% 29.99 in 10.0 mi SSW 6.9 mph - N/A   Scattered Clouds
8:32 AM 80.6 °F 86.2 °F 75.2 °F 84% 30.00 in 10.0 mi SSW 6.9 mph - N/A   Mostly Cloudy
8:53 AM 80.1 °F 85.1 °F 75.0 °F 85% 29.99 in 10.0 mi SW 5.8 mph - N/A   Mostly Cloudy
9:31 AM 82.4 °F 88.2 °F 73.4 °F 74% 30.01 in 10.0 mi SW 10.4 mph - N/A   Scattered Clouds
9:53 AM 84.0 °F 90.2 °F 73.0 °F 69% 30.00 in 10.0 mi SW 11.5 mph - N/A   Scattered Clouds
10:53 AM 87.1 °F 93.6 °F 72.0 °F 61% 30.00 in 10.0 mi West 10.4 mph - N/A   Scattered Clouds
11:53 AM 88.0 °F 94.7 °F 72.0 °F 59% 29.99 in 10.0 mi SW 5.8 mph - N/A   Scattered Clouds
12:53 PM 89.1 °F 95.0 °F 71.1 °F 55% 29.97 in 10.0 mi SSE 10.4 mph - N/A   Mostly Cloudy
1:53 PM 91.9 °F 96.9 °F 69.1 °F 47% 29.94 in 10.0 mi South 8.1 mph - N/A   Scattered Clouds
2:53 PM 93.9 °F 98.6 °F 68.0 °F 43% 29.90 in 10.0 mi South 8.1 mph 17.3 mph N/A   Partly Cloudy
3:53 PM 95.0 °F 99.5 °F 68.0 °F 41% 29.88 in 10.0 mi SSW 10.4 mph - N/A   Partly Cloudy
4:53 PM 96.1 °F 99.9 °F 66.9 °F 38% 29.86 in 10.0 mi SSE 6.9 mph - N/A   Mostly Cloudy
5:53 PM 95.0 °F 97.9 °F 66.0 °F 38% 29.85 in 10.0 mi SE 9.2 mph - N/A   Mostly Cloudy
6:53 PM 93.9 °F 97.5 °F 66.9 °F 41% 29.85 in 10.0 mi ESE 6.9 mph - N/A   Partly Cloudy
7:53 PM 91.9 °F 95.9 °F 68.0 °F 45% 29.84 in 10.0 mi SSE 10.4 mph - N/A   Scattered Clouds
8:53 PM 90.0 °F 95.4 °F 70.0 °F 52% 29.86 in 10.0 mi South 11.5 mph - N/A   Clear
9:53 PM 88.0 °F 93.8 °F 71.1 °F 57% 29.86 in 10.0 mi South 15.0 mph - N/A   Clear
10:53 PM 84.9 °F 90.1 °F 71.1 °F 63% 29.90 in 10.0 mi South 9.2 mph - N/A   Clear
11:53 PM 82.9 °F 88.8 °F 73.0 °F 72% 29.91 in 10.0 mi South 9.2 mph - N/A   Clear